This is the latest recevied weather packets stored in our database for station/object 9W3FAB-1. If no packets are shown the sender has not sent any weather packets the latest 1 day(s).
| Time | Temp. | Humidity | Pressure | Rain* | Wind** | Luminosity | Snow |
|---|---|---|---|---|---|---|---|
| 1778054518 | 31.11° C | 100% | 1003.7 hPa | - | - | - | - |
| 1778053617 | 31.67° C | 100% | 1003.9 hPa | - | - | - | - |
| 1778052716 | 31.11° C | 100% | 1004.1 hPa | - | - | - | - |
| 1778051815 | 31.11° C | 100% | 1004 hPa | - | - | - | - |
| 1778047311 | 30.56° C | 100% | 1004.9 hPa | - | - | - | - |
| 1778046410 | 31.67° C | 100% | 1005.2 hPa | - | - | - | - |
| 1778045514 | 31.11° C | 100% | 1005.4 hPa | - | - | - | - |
| 1778043707 | 31.11° C | 100% | 1005.9 hPa | - | - | - | - |
| 1778042807 | 31.67° C | 100% | 1006.1 hPa | - | - | - | - |
| 1778041906 | 31.11° C | 100% | 1006.4 hPa | - | - | - | - |
| 1778041005 | 31.11° C | 100% | 1006.7 hPa | - | - | - | - |
| 1778040104 | 30.56° C | 100% | 1007 hPa | - | - | - | - |
| 1778039203 | 30.56° C | 100% | 1007.1 hPa | - | - | - | - |
| 1778037401 | 31.11° C | 100% | 1007.4 hPa | - | - | - | - |
| 1778036500 | 30.56° C | 100% | 1007.7 hPa | - | - | - | - |
| 1778035599 | 30° C | 100% | 1007.9 hPa | - | - | - | - |
| 1778034698 | 29.44° C | 100% | 1008 hPa | - | - | - | - |
| 1778032897 | 28.89° C | 100% | 1008.2 hPa | - | - | - | - |
| 1778031996 | 28.89° C | 100% | 1008.2 hPa | - | - | - | - |
| 1778031095 | 28.33° C | 100% | 1008.3 hPa | - | - | - | - |
| 1778030194 | 28.33° C | 100% | 1008.2 hPa | - | - | - | - |
| 1778029293 | 28.33° C | 100% | 1008.3 hPa | - | - | - | - |
| 1778026591 | 27.22° C | 100% | 1008 hPa | - | - | - | - |
* Rain since midnight (hover to see other rain measurements)
** Current wind speed in m/s (hover to see current wind gust speed)